Location: Unspecified
(0.0000°N, 0.0000°E)
Time: 17:30:09
(UTC+00:00)

Vanguard 2 Rocket - All Passes

Search period start: 18 June 2019 00:00
Search period end: 28 June 2019 00:00
Orbit: 554 x 3326 km, 32.9° (Epoch: 17 June)

Date Brightness Start Highest point End Pass type
(mag) Time Alt. Az. Time Alt. Az. Time Alt. Az.
18 Jun - 01:33:37 10° NNW 01:44:06 18° NNE 01:56:05 10° NE visible
18 Jun - 03:49:10 10° NNW 04:06:48 38° NNE 04:22:59 10° E visible
18 Jun - 06:06:10 10° NW 06:26:42 80° NE 06:40:53 10° ESE daylight
18 Jun - 08:27:34 10° WNW 08:43:28 41° SW 08:53:33 10° SSE daylight
18 Jun - 17:44:22 10° SSW 17:48:15 36° SE 17:53:38 10° ENE daylight
18 Jun - 19:56:44 10° W 20:01:46 33° NNW 20:09:46 10° NE visible
18 Jun - 22:14:13 10° NW 22:19:04 14° N 22:25:12 10° NNE visible
19 Jun - 00:33:16 10° NNW 00:40:40 15° N 00:49:23 10° NE visible
19 Jun - 02:48:22 10° NNW 03:03:40 29° NNE 03:19:32 10° E visible
19 Jun - 05:04:12 10° NW 05:24:27 63° NE 05:40:21 10° ESE visible
19 Jun - 07:23:33 10° WNW 07:42:27 59° SW 07:54:40 10° SE daylight
19 Jun - 09:50:28 10° WSW 09:58:30 17° SW 10:04:36 10° S daylight
19 Jun - 16:46:39 10° S 16:49:09 16° SE 16:51:58 10° ESE daylight
19 Jun - 18:57:21 10° WSW 19:01:53 50° NNW 19:09:01 10° NE visible
19 Jun - 21:13:17 10° NW 21:17:43 16° NNW 21:23:32 10° NNE visible
19 Jun - 23:33:14 10° NNW 23:37:40 12° N 23:42:45 10° NNE visible
20 Jun - 01:48:02 10° NNW 02:00:24 22° NNE 02:14:30 10° ENE visible
20 Jun - 04:02:51 10° NW 04:21:49 50° NNE 04:38:55 10° ESE visible
20 Jun - 06:20:26 10° WNW 06:40:55 78° SW 06:55:11 10° SE daylight
20 Jun - 08:44:04 10° W 08:57:40 28° SW 09:06:58 10° SSE daylight
20 Jun - 17:58:21 10° SW 18:02:29 86° SE 18:08:26 10° NE daylight
20 Jun - 20:12:46 10° WNW 20:16:58 19° NNW 20:22:45 10° NNE visible
20 Jun - 22:33:36 10° N 22:35:16 10° N 22:37:04 10° N visible
21 Jun - 00:48:15 10° NNW 00:57:12 17° NNE 01:07:52 10° NE visible
21 Jun - 03:02:06 10° NNW 03:18:58 39° NNE 03:36:20 10° E visible
21 Jun - 05:18:09 10° NW 05:38:51 83° NE 05:55:03 10° ESE visible
21 Jun - 07:39:05 10° WNW 07:56:33 42° SW 08:08:23 10° SSE daylight
21 Jun - 10:11:07 10° SW 10:13:31 11° SSW 10:15:43 10° SSW daylight
21 Jun - 16:59:43 10° SSW 17:03:24 37° SE 17:07:51 10° ENE daylight
21 Jun - 19:12:43 10° W 19:16:44 25° NNW 19:22:27 10° NNE visible
21 Jun - 23:49:17 10° N 23:54:15 12° NNE 23:59:57 10° NE visible
22 Jun - 02:01:53 10° NNW 02:16:05 29° NNE 02:32:18 10° E visible
22 Jun - 04:16:37 10° NW 04:36:23 66° NE 04:54:08 10° ESE visible
22 Jun - 06:35:14 10° WNW 06:55:01 59° SW 07:09:09 10° SE daylight
22 Jun - 09:01:52 10° WSW 09:12:17 19° SW 09:20:06 10° S daylight
22 Jun - 16:01:36 10° S 16:04:14 17° SE 16:06:54 10° ESE daylight
22 Jun - 18:13:05 10° W 18:17:00 39° NNW 18:22:27 10° NE daylight
22 Jun - 20:31:10 10° NNW 20:32:28 10° NNW 20:33:52 10° N visible
23 Jun - 01:02:16 10° NNW 01:13:15 21° NNE 01:26:35 10° ENE visible
23 Jun - 03:15:46 10° NW 03:33:45 51° NE 03:52:15 10° ESE visible
23 Jun - 05:32:28 10° WNW 05:53:02 77° SW 06:09:19 10° SE visible
23 Jun - 07:55:35 10° W 08:10:54 30° SW 08:21:53 10° SSE daylight
23 Jun - 17:13:48 10° WSW 17:17:43 81° NW 17:22:33 10° NE daylight
23 Jun - 19:29:31 10° NW 19:31:55 13° NNW 19:34:45 10° N visible
24 Jun - 00:03:27 10° N 00:10:34 15° NNE 00:19:08 10° NE visible
24 Jun - 02:15:32 10° NNW 02:31:08 39° NNE 02:49:08 10° E visible
24 Jun - 04:30:37 10° NW 04:50:41 85° NE 05:08:47 10° SE visible
24 Jun - 06:50:48 10° WNW 07:09:13 43° SW 07:22:52 10° SSE daylight
24 Jun - 09:21:13 10° SW 09:27:30 13° SSW 09:32:44 10° S daylight
24 Jun - 16:14:49 10° SW 16:18:38 42° SE 16:22:36 10° ENE daylight
24 Jun - 18:28:48 10° WNW 18:31:50 18° NNW 18:35:35 10° NNE visible
25 Jun - 01:15:55 10° NNW 01:28:39 29° NNE 01:44:31 10° E visible
25 Jun - 03:29:34 10° NW 03:48:09 68° NE 04:07:25 10° ESE visible
25 Jun - 05:47:20 10° WNW 06:07:12 58° SW 06:23:15 10° SE daylight
25 Jun - 08:13:16 10° WSW 08:25:44 22° SSW 08:35:13 10° SSE daylight
25 Jun - 15:16:06 10° SSW 15:19:22 20° SSE 15:22:20 10° E daylight
25 Jun - 17:28:43 10° W 17:32:13 30° NNW 17:36:25 10° NNE daylight
26 Jun - 00:16:57 10° NNW 00:26:20 20° NNE 00:38:15 10° ENE visible
26 Jun - 02:29:12 10° NW 02:45:42 52° NE 03:05:02 10° ESE visible
26 Jun - 04:44:59 10° WNW 05:04:52 75° SW 05:22:59 10° SE visible
26 Jun - 07:07:18 10° W 07:23:46 32° SW 07:36:26 10° SSE daylight
26 Jun - 14:17:56 10° S 14:19:40 12° SSE 14:21:14 10° SE daylight
26 Jun - 16:29:01 10° WSW 16:33:01 67° NW 16:37:09 10° NE daylight
26 Jun - 23:19:21 10° N 23:24:12 13° NNE 23:29:54 10° NE visible
27 Jun - 01:29:28 10° NNW 01:43:26 39° NE 02:01:25 10° E visible
27 Jun - 03:43:37 10° NW 04:02:22 87° NE 04:22:00 10° SE visible
27 Jun - 06:02:54 10° W 06:21:34 44° SW 06:36:57 10° SSE daylight
27 Jun - 08:32:11 10° WSW 08:41:11 16° SSW 08:48:29 10° S daylight
27 Jun - 15:29:31 10° SW 15:33:56 51° SE 15:37:44 10° ENE daylight
27 Jun - 17:45:03 10° NW 17:46:57 13° NNW 17:48:59 10° N daylight
